sat.trackr.live / text

‹ back to catalog

GSAT-31

NORAD 44035 · 2019-007B

PAYLOAD ACTIVE UNKNOWN

§ Identity

Operator
Country
IND
Launch date
2019-02-05
Launch site
FRGUI
Launch vehicle
Mass (kg)
RCS (m²)

Purposes: comms

External: N2YO · Heavens-Above · Gunter

§ Orbital elements

Epoch: 2026-09-20T03:27:49.296384Z

Period
1,436.08 min
Inclination
0.0168°
Eccentricity
0.0003934
Mean motion
1.00273287 rev/d
Perigee alt
35,769.6 km
Apogee alt
35,802.8 km
Semi-major
42,164.3 km
B*
0.0000e+0
RAAN
138.7010°
Arg perigee
88.4663°
Mean anomaly
231.7067°
Rev number
2,792

§ Raw data

GSAT-311 44035U 19007B   26263.14432056  .00000121  00000+0  00000+0 0  99992 44035   0.0168 138.7010 0003934  88.4663 231.7067  1.00273287 27923

JSON: /api/v1/satellites/44035 · /tle

For live sub-satellite position, see the globe view (requires WebGL).

§ Visibility from observer

Set your observer location to see the next 7 days of passes ≥ 10°. The values pass through the URL so the page stays shareable.

No JS? Fill the form by hand. The geolocation button needs JavaScript.